Weather History for Fort Wayne, IN

Change the Weather History Date:

Thursday, July 25, 2013

  Actual Average Record
Temperature  
Mean Temperature 65 °F 73 °F  
Max Temperature 77 °F 84 °F 103 °F (1934)
Min Temperature 52 °F 62 °F 44 °F (1904)
Degree Days  
Heating Degree Days 0 0  
Month to date heating degree days 2 0  
Since 1 June heating degree days 21 29  
Since 1 July heating degree days 2 0  
Cooling Degree Days 0 8  
Month to date cooling degree days 234 221  
Year to date cooling degree days 527 460  
Since 1 June cooling degree days 422 403  
Growing Degree Days 14 (Base 50)    
Moisture  
Dew Point 55 °F    
Average Humidity 71    
Maximum Humidity 96    
Minimum Humidity 38    
Precipitation  
Precipitation 0.00 in 0.13 in 2.57 in (1986)
Month to date precipitation 3.64 3.44  
Year to date precipitation 27.22 22.40  
Snow  
Snow 0.00 in 0.00 in 0.00 in (2002)
Month to date snowfall 0.0 0.0  
Since 1 June snowfall 0.0 0.0  
Since 1 July snowfall 0.0 0.0  
Snow Depth 0.00 in    
Sea Level Pressure  
Sea Level Pressure 30.09 in    
Wind  
Wind Speed 1 mph (NW)    
Max Wind Speed 7 mph    
Max Gust Speed 9 mph    
Visibility 10 miles    
Events      
T = Trace of Precipitation, MM = Missing Value Source: NWS Daily Summary

Daily Weather History Graph

Daily Weather History Graph

Search for Another Location

Airport:

Trip Planner

Search our weather history database for the weather conditions in past years. The results will help you decide how hot, cold, wet, or windy it might be!

Date:

Astronomy

Jul. 25, 2013 Rise Set
Actual Time 6:30 AM EDT 9:03 PM EDT
Civil Twilight 5:58 AM EDT 9:35 PM EDT
Nautical Twilight 5:19 AM EDT 10:14 PM EDT
Astronomical Twilight 4:35 AM EDT 10:58 PM EDT
Moon 10:41 PM EDT (7/25) 10:01 AM EDT (7/25)
Length of Visible Light 15h 36m
Length of Day
14h 33m
Waning Gibbous, 88% of the Moon is Illuminated
Jul 25
Waning Gibbous
Jul 29
Last Quarter
Aug 6
New
Aug 14
First Quarter
Aug 20
Full

Hourly Weather History & Observations

Time (EDT) Temp. Dew Point Humidity Pressure Visibility Wind Dir Wind Speed Gust Speed Precip Events Conditions
12:54 AM 57.0 °F 54.0 °F 89% 30.05 in 10.0 mi Calm Calm - N/A   Partly Cloudy
1:54 AM 55.9 °F 54.0 °F 93% 30.05 in 10.0 mi Calm Calm - N/A   Clear
2:54 AM 55.0 °F 53.1 °F 93% 30.05 in 10.0 mi Calm Calm - N/A   Clear
3:54 AM 54.0 °F 52.0 °F 93% 30.06 in 10.0 mi Calm Calm - N/A   Clear
4:54 AM 54.0 °F 52.0 °F 93% 30.07 in 10.0 mi Calm Calm - N/A   Clear
5:54 AM 53.1 °F 52.0 °F 96% 30.08 in 10.0 mi Calm Calm - N/A   Clear
6:54 AM 53.1 °F 52.0 °F 96% 30.10 in 10.0 mi NNW 3.5 mph - N/A   Partly Cloudy
7:54 AM 59.0 °F 55.9 °F 90% 30.11 in 10.0 mi Calm Calm - N/A   Partly Cloudy
8:54 AM 63.0 °F 55.9 °F 78% 30.11 in 10.0 mi Calm Calm - N/A   Partly Cloudy
9:54 AM 66.2 °F 55.4 °F 68% 30.12 in 10.0 mi Calm Calm - N/A   Partly Cloudy
10:54 AM 68.0 °F 55.4 °F 64% 30.13 in 10.0 mi Calm Calm - N/A   Partly Cloudy
11:54 AM 69.8 °F 53.6 °F 56% 30.12 in 10.0 mi WNW 4.6 mph - N/A   Mostly Cloudy
12:54 PM 69.8 °F 53.6 °F 56% 30.12 in 10.0 mi Calm Calm - N/A   Scattered Clouds
1:54 PM 73.0 °F 55.0 °F 53% 30.12 in 10.0 mi North 3.5 mph - N/A   Mostly Cloudy
2:54 PM 73.9 °F 53.1 °F 48% 30.12 in 10.0 mi Calm Calm - N/A   Mostly Cloudy
3:54 PM 75.0 °F 55.0 °F 50% 30.12 in 10.0 mi NNW 5.8 mph - N/A   Mostly Cloudy
4:54 PM 75.9 °F 55.0 °F 48% 30.10 in 10.0 mi WNW 5.8 mph - N/A   Mostly Cloudy
5:54 PM 77.0 °F 53.1 °F 43% 30.09 in 10.0 mi Variable 3.5 mph - N/A   Mostly Cloudy
6:54 PM 75.9 °F 52.0 °F 43% 30.08 in 10.0 mi Calm Calm - N/A   Scattered Clouds
7:54 PM 71.1 °F 57.9 °F 63% 30.09 in 10.0 mi West 3.5 mph - N/A   Scattered Clouds
8:54 PM 70.0 °F 55.9 °F 61% 30.09 in 10.0 mi Calm Calm - N/A   Mostly Cloudy
9:54 PM 64.9 °F 57.9 °F 78% 30.09 in 10.0 mi SSW 3.5 mph - N/A   Mostly Cloudy
10:54 PM 64.0 °F 57.0 °F 78% 30.10 in 10.0 mi Calm Calm - N/A   Mostly Cloudy
11:54 PM 61.0 °F 57.0 °F 87% 30.11 in 10.0 mi Calm Calm - N/A   Partly Cloudy